TAR718 DTTA-LFPO

Flight info

Callsign TAR718
Flight time N/A
Altitude 36000
Route TOBIB3C TOBIB UA725 OSMAR DCT PIRIX DCT CAR DCT GIGGI DCT UPDUT/N0467F340 DCT CORSI/N0456F300 DCT OMEDA DCT MERLU DCT PIGOS DCT BARSO DCT OKTET DCT GIPNO DCT BULOL DCT IDAVO DCT ARDOL
Aircraft A332/H-SDE3GHIJ2J3J5M1RVWXY/LB2D1

Departure

Time 2026-04-27 19:12
Airport Tunis Carthage International Airport (DTTA)

Arrival

Time N/A
Airport Paris-Orly Airport (LFPO)
Time Latitude Longitude Altitude Speed Heading
2026-04-27 18:47 36.84659 10.21950 30 ft 0 kts 197°
2026-04-27 19:01 36.84663 10.21952 30 ft 2 kts 197°
2026-04-27 19:01 36.84678 10.21958 30 ft 2 kts 197°
2026-04-27 19:02 36.84692 10.21963 30 ft 2 kts 197°
2026-04-27 19:02 36.84707 10.21969 30 ft 2 kts 197°
2026-04-27 19:02 36.84716 10.21973 30 ft 0 kts 197°
2026-04-27 19:02 36.84721 10.21974 30 ft 0 kts 180°
2026-04-27 19:03 36.84726 10.21974 30 ft 0 kts 159°
2026-04-27 19:03 36.84730 10.21972 30 ft 0 kts 139°
2026-04-27 19:03 36.84734 10.21968 30 ft 0 kts 121°
2026-04-27 19:03 36.84735 10.21965 30 ft 0 kts 110°
2026-04-27 19:04 36.84737 10.21960 30 ft 0 kts 103°
2026-04-27 19:05 36.84736 10.21961 30 ft 0 kts 103°
2026-04-27 19:05 36.84735 10.21967 30 ft 1 kts 103°
2026-04-27 19:06 36.84732 10.21980 30 ft 1 kts 111°
2026-04-27 19:06 36.84724 10.22006 30 ft 4 kts 112°
2026-04-27 19:06 36.84703 10.22068 28 ft 6 kts 110°
2026-04-27 19:06 36.84716 10.22093 27 ft 5 kts 12°
2026-04-27 19:07 36.84760 10.22101 27 ft 7 kts 11°
2026-04-27 19:07 36.84812 10.22115 28 ft 7 kts 11°
2026-04-27 19:07 36.84863 10.22145 28 ft 9 kts 32°
2026-04-27 19:07 36.84884 10.22210 27 ft 8 kts 97°
2026-04-27 19:08 36.84871 10.22293 25 ft 8 kts 93°
2026-04-27 19:08 36.84886 10.22369 23 ft 6 kts 55°
2026-04-27 19:08 36.84928 10.22383 23 ft 7 kts
2026-04-27 19:08 36.84978 10.22373 24 ft 8 kts 334°
2026-04-27 19:09 36.85025 10.22322 25 ft 7 kts 302°
2026-04-27 19:09 36.85046 10.22255 26 ft 8 kts 289°
2026-04-27 19:09 36.85070 10.22173 27 ft 13 kts 291°
2026-04-27 19:09 36.85109 10.22061 29 ft 14 kts 293°
2026-04-27 19:10 36.85154 10.21931 29 ft 17 kts 292°
2026-04-27 19:10 36.85201 10.21787 30 ft 16 kts 292°
2026-04-27 19:10 36.85281 10.21721 30 ft 15 kts
2026-04-27 19:10 36.85350 10.21747 30 ft 16 kts 21°
2026-04-27 19:11 36.85405 10.21805 30 ft 6 kts 97°
2026-04-27 19:11 36.85399 10.21848 30 ft 0 kts 109°
2026-04-27 19:11 36.85319 10.22095 27 ft 67 kts 112°
2026-04-27 19:11 36.85052 10.22904 24 ft 130 kts 113°
2026-04-27 19:12 36.84654 10.24095 188 ft 163 kts 111°
2026-04-27 19:12 36.84219 10.25402 819 ft 164 kts 112°
2026-04-27 19:12 36.83805 10.26672 1604 ft 158 kts 112°
2026-04-27 19:12 36.83383 10.27948 2126 ft 165 kts 112°
2026-04-27 19:13 36.82898 10.29306 2456 ft 182 kts 123°
2026-04-27 19:13 36.81863 10.30329 2773 ft 202 kts 160°
2026-04-27 19:13 36.80415 10.30353 3140 ft 221 kts 199°
2026-04-27 19:13 36.79216 10.29157 3784 ft 227 kts 240°
2026-04-27 19:14 36.78916 10.27252 4491 ft 231 kts 280°
2026-04-27 19:14 36.79660 10.25530 5149 ft 234 kts 320°
2026-04-27 19:14 36.81115 10.24595 5834 ft 236 kts 341°
2026-04-27 19:14 36.82677 10.23990 6513 ft 239 kts 343°
2026-04-27 19:15 36.84289 10.23384 7223 ft 241 kts 342°
2026-04-27 19:15 36.85897 10.22829 7925 ft 244 kts 345°
2026-04-27 19:15 36.87609 10.22312 8375 ft 260 kts 345°
2026-04-27 19:15 36.89427 10.21764 8776 ft 278 kts 345°
2026-04-27 19:16 36.91360 10.21175 9358 ft 288 kts 345°
2026-04-27 19:16 36.92656 10.20779 9882 ft 290 kts 345°
2026-04-27 19:16 36.95276 10.19974 10816 ft 299 kts 344°
2026-04-27 19:16 36.97351 10.19330 11196 ft 316 kts 343°
2026-04-27 19:17 36.99555 10.18643 11563 ft 335 kts 343°
2026-04-27 19:17 37.01862 10.17926 11949 ft 351 kts 343°
2026-04-27 19:17 37.04261 10.17181 12632 ft 356 kts 343°
2026-04-27 19:17 37.06651 10.16439 13465 ft 358 kts 343°
2026-04-27 19:18 37.09076 10.15686 14262 ft 361 kts 343°
2026-04-27 19:18 37.11544 10.14917 14996 ft 365 kts 343°
2026-04-27 19:18 37.13995 10.14150 15694 ft 369 kts 343°
2026-04-27 19:18 37.16531 10.13356 16397 ft 374 kts 343°
2026-04-27 19:19 37.19061 10.12565 17093 ft 378 kts 343°
2026-04-27 19:19 37.21585 10.11775 17783 ft 381 kts 343°
2026-04-27 19:19 37.24204 10.10953 18487 ft 385 kts 343°
2026-04-27 19:19 37.26805 10.10138 19173 ft 389 kts 343°
2026-04-27 19:20 37.29452 10.09308 19861 ft 392 kts 343°
2026-04-27 19:20 37.32069 10.08486 20510 ft 395 kts 343°
2026-04-27 19:20 37.34770 10.07638 21164 ft 398 kts 343°
2026-04-27 19:20 37.37461 10.06793 21794 ft 401 kts 343°
2026-04-27 19:21 37.40176 10.05938 22389 ft 404 kts 343°
2026-04-27 19:21 37.42881 10.05086 22956 ft 408 kts 343°
2026-04-27 19:21 37.45642 10.04215 23522 ft 410 kts 343°
2026-04-27 19:21 37.48442 10.03333 24104 ft 413 kts 343°
2026-04-27 19:22 37.51211 10.02457 24649 ft 416 kts 343°
2026-04-27 19:22 37.54018 10.01569 25185 ft 418 kts 343°
2026-04-27 19:22 37.56869 10.00664 25695 ft 421 kts 343°
2026-04-27 19:22 37.59723 9.99758 26183 ft 424 kts 343°
2026-04-27 19:23 37.62595 9.98845 26661 ft 427 kts 343°
2026-04-27 19:23 37.65490 9.97924 27148 ft 429 kts 343°
2026-04-27 19:23 37.68386 9.97002 27593 ft 432 kts 343°
2026-04-27 19:23 37.71309 9.96071 28039 ft 434 kts 343°
2026-04-27 19:24 37.74238 9.95136 28481 ft 437 kts 343°
2026-04-27 19:24 37.77197 9.94193 28897 ft 439 kts 343°
2026-04-27 19:24 37.80163 9.93251 29316 ft 442 kts 343°
2026-04-27 19:24 37.83146 9.92303 29718 ft 444 kts 343°
2026-04-27 19:25 37.86159 9.91344 30080 ft 447 kts 343°
2026-04-27 19:25 37.89201 9.90375 30483 ft 449 kts 343°
2026-04-27 19:25 37.92208 9.89417 31013 ft 447 kts 343°
2026-04-27 19:25 37.95229 9.88453 31550 ft 444 kts 343°
2026-04-27 19:26 37.98187 9.87508 32055 ft 442 kts 343°
2026-04-27 19:26 38.01201 9.86543 32549 ft 441 kts 343°
2026-04-27 19:26 38.04174 9.85589 32997 ft 440 kts 343°
2026-04-27 19:26 38.07134 9.84640 33418 ft 439 kts 343°
2026-04-27 19:27 38.10083 9.83691 33838 ft 438 kts 343°
2026-04-27 19:27 38.13045 9.82738 34254 ft 437 kts 343°
2026-04-27 19:27 38.15971 9.81797 34599 ft 437 kts 343°
2026-04-27 19:27 38.18925 9.80845 34879 ft 437 kts 343°
2026-04-27 19:28 38.21858 9.79899 35146 ft 438 kts 343°
2026-04-27 19:28 38.24834 9.78939 35384 ft 440 kts 343°
2026-04-27 19:28 38.27826 9.77979 35614 ft 442 kts 343°
2026-04-27 19:28 38.30783 9.77035 35852 ft 443 kts 343°
2026-04-27 19:29 38.33798 9.76071 36038 ft 444 kts 343°
2026-04-27 19:29 38.39827 9.74138 36066 ft 446 kts 343°
2026-04-27 19:30 38.45821 9.72211 36068 ft 447 kts 343°
2026-04-27 19:30 38.51846 9.70270 36067 ft 447 kts 343°
2026-04-27 19:31 38.57888 9.68319 36065 ft 448 kts 343°
2026-04-27 19:31 38.63902 9.66375 36068 ft 448 kts 343°
2026-04-27 19:32 38.69984 9.64404 36066 ft 448 kts 343°
2026-04-27 19:32 38.76023 9.62441 36065 ft 448 kts 343°
2026-04-27 19:33 38.82058 9.60477 36064 ft 449 kts 343°
2026-04-27 19:33 38.88113 9.58505 36064 ft 449 kts 343°
2026-04-27 19:34 38.94195 9.56502 36061 ft 450 kts 343°
2026-04-27 19:34 39.00249 9.54471 36072 ft 451 kts 343°
2026-04-27 19:35 39.06322 9.52431 36067 ft 451 kts 343°
2026-04-27 19:35 39.12384 9.50413 36072 ft 451 kts 344°
2026-04-27 19:36 39.18519 9.48596 36070 ft 451 kts 345°
2026-04-27 19:36 39.24616 9.46814 36074 ft 451 kts 345°
2026-04-27 19:37 39.30764 9.44998 36076 ft 452 kts 345°
2026-04-27 19:37 39.36877 9.43183 36080 ft 452 kts 345°
2026-04-27 19:38 39.43018 9.41351 36086 ft 452 kts 345°
2026-04-27 19:38 39.49161 9.39516 36088 ft 452 kts 345°
2026-04-27 19:39 39.55300 9.37679 36096 ft 452 kts 345°
2026-04-27 19:39 39.61409 9.35848 36095 ft 452 kts 345°
2026-04-27 19:40 39.67543 9.34006 36100 ft 451 kts 345°
2026-04-27 19:40 39.73679 9.32157 36096 ft 452 kts 345°
2026-04-27 19:41 39.79771 9.30319 36098 ft 453 kts 345°
2026-04-27 19:41 39.85929 9.28458 36105 ft 453 kts 345°
2026-04-27 19:42 39.92061 9.26601 36110 ft 453 kts 345°
2026-04-27 19:42 39.98181 9.24745 36119 ft 452 kts 345°
2026-04-27 19:43 40.04334 9.22875 36120 ft 452 kts 345°
2026-04-27 19:43 40.10468 9.21008 36116 ft 453 kts 345°
2026-04-27 19:44 40.16597 9.19136 36100 ft 453 kts 345°
2026-04-27 19:44 40.22733 9.17258 36093 ft 453 kts 345°
2026-04-27 19:45 40.28899 9.15362 36089 ft 453 kts 345°
2026-04-27 19:45 40.35062 9.13434 36099 ft 464 kts 345°
2026-04-27 19:46 40.41405 9.11443 36096 ft 473 kts 345°
2026-04-27 19:46 40.47830 9.09427 36105 ft 474 kts 345°
2026-04-27 19:47 40.54257 9.07404 36093 ft 474 kts 345°
2026-04-27 19:47 40.60661 9.05386 36094 ft 474 kts 345°
2026-04-27 19:48 40.67075 9.03359 36095 ft 474 kts 345°
2026-04-27 19:48 40.73475 9.01332 36084 ft 474 kts 345°
2026-04-27 19:49 40.79915 8.99287 36084 ft 475 kts 345°
2026-04-27 19:49 40.86300 8.97256 36082 ft 474 kts 345°
2026-04-27 19:50 40.92736 8.95204 36085 ft 474 kts 346°
2026-04-27 19:50 40.99123 8.93165 36083 ft 474 kts 346°
2026-04-27 19:51 41.05548 8.91109 36085 ft 475 kts 346°
2026-04-27 19:51 41.11984 8.89045 36094 ft 475 kts 346°
2026-04-27 19:52 41.18376 8.86989 36077 ft 474 kts 346°
2026-04-27 19:52 41.24738 8.84891 36091 ft 473 kts 344°
2026-04-27 19:53 41.33949 8.80385 36098 ft 471 kts 333°
2026-04-27 19:53 41.39811 8.76418 36090 ft 472 kts 333°
2026-04-27 19:54 41.45653 8.72446 36082 ft 472 kts 333°
2026-04-27 19:54 41.51492 8.68491 36100 ft 471 kts 333°
2026-04-27 19:55 41.57370 8.64515 36098 ft 471 kts 333°
2026-04-27 19:55 41.63210 8.60562 36096 ft 471 kts 333°
2026-04-27 19:56 41.69033 8.56614 36091 ft 471 kts 333°
2026-04-27 19:56 41.74882 8.52642 36092 ft 471 kts 334°
2026-04-27 19:57 41.80731 8.48662 36096 ft 471 kts 334°
2026-04-27 19:57 41.86550 8.44693 36103 ft 471 kts 334°
2026-04-27 19:58 41.92358 8.40724 36100 ft 471 kts 334°
2026-04-27 19:58 41.98201 8.36722 36095 ft 471 kts 334°
2026-04-27 19:59 42.04043 8.32713 36106 ft 471 kts 333°
2026-04-27 19:59 42.09894 8.28690 36086 ft 471 kts 333°
2026-04-27 20:00 42.15686 8.24698 36096 ft 471 kts 333°
2026-04-27 20:00 42.21534 8.20660 36094 ft 471 kts 333°
2026-04-27 20:01 42.27347 8.16639 36083 ft 470 kts 333°
2026-04-27 20:01 42.33174 8.12598 36088 ft 470 kts 333°
2026-04-27 20:02 42.38993 8.08554 36089 ft 470 kts 333°
2026-04-27 20:02 42.44804 8.04507 36080 ft 470 kts 333°
2026-04-27 20:03 42.50594 8.00468 36082 ft 469 kts 333°
2026-04-27 20:03 42.56388 7.96417 36074 ft 469 kts 333°
2026-04-27 20:04 42.62189 7.92352 36079 ft 469 kts 333°
2026-04-27 20:04 42.67963 7.88296 36089 ft 469 kts 333°
2026-04-27 20:05 42.73777 7.84205 36086 ft 469 kts 333°